Time,TemperatureF,DewpointF,PressureIn,WindDirection,WindDirectionDegrees,WindSpeedMPH,WindSpeedGustMPH,Humidity,HourlyPrecipIn,Conditions,Clouds,dailyrainin,SoftwareType,DateUTC
2013-05-11 00:52:00,81.0,-99.9,30.07,SSE,150,15.0,17.0,-999,-99.99,,,-99.99,,2013-05-11 04:52:00,
2013-05-11 01:52:00,81.0,-99.9,30.06,SSE,150,14.0,16.0,-999,-99.99,,,-99.99,,2013-05-11 05:52:00,
2013-05-11 02:53:00,81.0,-99.9,30.06,SSE,160,13.0,15.0,-999,-99.99,,,-99.99,,2013-05-11 06:53:00,
2013-05-11 03:52:00,81.0,-99.9,30.05,South,170,11.0,14.0,-999,-99.99,,,-99.99,,2013-05-11 07:52:00,
2013-05-11 04:52:00,81.0,-99.9,30.05,South,170,10.0,11.0,-999,-99.99,,,-99.99,,2013-05-11 08:52:00,
2013-05-11 05:53:00,81.0,-99.9,30.03,South,170,11.0,14.0,-999,-99.99,,,-99.99,,2013-05-11 09:53:00,
2013-05-11 06:53:00,81.0,-99.9,30.04,SSE,160,13.0,15.0,-999,-99.99,,,-99.99,,2013-05-11 10:53:00,
2013-05-11 07:52:00,81.0,-99.9,30.05,SSE,160,13.0,15.0,-999,-99.99,,,-99.99,,2013-05-11 11:52:00,
2013-05-11 08:52:00,81.0,-99.9,30.05,SSE,160,15.0,17.0,-999,-99.99,,,-99.99,,2013-05-11 12:52:00,
2013-05-11 09:52:00,81.0,-99.9,30.06,SSE,160,15.0,16.0,-999,-99.99,,,-99.99,,2013-05-11 13:52:00,
2013-05-11 10:52:00,81.0,-99.9,30.08,South,170,15.0,16.0,-999,-99.99,,,-99.99,,2013-05-11 14:52:00,
2013-05-11 11:53:00,82.0,-99.9,30.08,South,170,15.0,17.0,-999,-99.99,,,-99.99,,2013-05-11 15:53:00,
2013-05-11 12:53:00,82.0,-99.9,30.07,South,180,14.0,16.0,-999,-99.99,,,-99.99,,2013-05-11 16:53:00,
2013-05-11 13:52:00,82.0,-99.9,30.06,South,180,14.0,15.0,-999,-99.99,,,-99.99,,2013-05-11 17:52:00,
2013-05-11 14:52:00,82.0,-99.9,30.05,South,180,13.0,15.0,-999,-99.99,,,-99.99,,2013-05-11 18:52:00,
2013-05-11 15:53:00,82.0,-99.9,30.04,South,180,13.0,14.0,-999,-99.99,,,-99.99,,2013-05-11 19:53:00,
2013-05-11 16:53:00,82.0,-99.9,30.03,South,190,11.0,15.0,-999,-99.99,,,-99.99,,2013-05-11 20:53:00,
2013-05-11 17:53:00,82.0,-99.9,30.02,SSW,200,10.0,13.0,-999,-99.99,,,-99.99,,2013-05-11 21:53:00,
2013-05-11 18:52:00,82.0,-99.9,30.01,SSW,200,9.0,11.0,-999,-99.99,,,-99.99,,2013-05-11 22:52:00,
2013-05-11 19:52:00,82.0,-99.9,30.02,SW,220,8.0,9.0,-999,-99.99,,,-99.99,,2013-05-11 23:52:00,
2013-05-11 20:52:00,82.0,-99.9,30.03,SSW,200,5.0,6.0,-999,-99.99,,,-99.99,,2013-05-12 00:52:00,
2013-05-11 21:52:00,81.0,-99.9,30.04,South,170,5.0,6.0,-999,-99.99,,,-99.99,,2013-05-12 01:52:00,
2013-05-11 22:52:00,81.0,-99.9,30.06,South,170,6.0,7.0,-999,-99.99,,,-99.99,,2013-05-12 02:52:00,
2013-05-11 23:53:00,81.0,-99.9,30.07,SSE,150,6.0,6.0,-999,-99.99,,,-99.99,,2013-05-12 03:53:00,